DW2891 Weather Reports


Display with metric or nautical units.
time (UTC)temp
F
wind
direction
speed
MPH
gust
MPH
rain 1hr
in
rain 24hr
in
rain mn
in
humidity
%
barometer
mb
20260903145605 55 132 0.0 0.0 0.01 0.24 0.07 96 1007.4
20260903145104 55 132 0.0 0.0 0.01 0.24 0.07 96 1007.4
20260903144605 55 132 0.0 0.0 0.01 0.24 0.07 96 1007.3
20260903144105 55 132 0.0 0.0 0.01 0.24 0.07 96 1007.3
20260903143605 55 132 0.0 0.0 0.01 0.24 0.07 96 1007.2
20260903143104 55 131 0.0 0.0 0.01 0.24 0.07 96 1007.2
20260903142605 55 132 0.0 0.0 0.01 0.24 0.07 96 1007.1
20260903142105 55 132 0.0 0.0 0.01 0.24 0.07 96 1007.1
20260903141605 54 131 0.0 0.0 0.01 0.24 0.07 96 1006.9
20260903141105 54 132 0.0 0.0 0.01 0.24 0.07 96 1006.9
20260903140604 54 131 0.0 0.0 0.01 0.24 0.07 96 1006.8
20260903135604 54 132 0.0 0.0 0.01 0.24 0.07 96 1006.8
20260903135104 54 132 0.0 0.0 0.00 0.24 0.06 96 1006.8
20260903134604 54 131 0.0 0.0 0.00 0.24 0.06 96 1006.8
20260903134105 54 131 0.0 0.0 0.00 0.24 0.06 96 1006.8
20260903133605 54 132 0.0 0.0 0.00 0.24 0.06 96 1006.7
20260903133104 54 132 0.0 0.0 0.00 0.24 0.06 96 1006.6
20260903132604 54 132 0.0 0.0 0.00 0.24 0.06 96 1006.6
20260903132106 54 132 0.0 0.0 0.00 0.24 0.06 96 1006.6
20260903131105 54 132 0.0 0.0 0.00 0.24 0.06 96 1006.4
20260903130605 54 132 0.0 0.0 0.00 0.24 0.06 96 1006.4
20260903130106 54 132 0.0 0.0 0.00 0.24 0.06 96 1006.4
20260903125605 54 132 0.0 0.0 0.00 0.24 0.06 96 1006.4
20260903125105 54 131 0.0 0.0 0.00 0.24 0.06 96 1006.4
20260903124605 54 132 0.0 0.0 0.00 0.24 0.06 96 1006.4
20260903123605 54 131 0.0 0.0 0.00 0.24 0.06 96 1006.3
20260903123104 54 132 0.0 0.0 0.00 0.24 0.06 96 1006.3
20260903122607 54 132 0.0 0.0 0.00 0.24 0.06 96 1006.3
20260903122105 54 132 0.0 0.0 0.00 0.24 0.06 96 1006.3
20260903121604 54 132 0.0 0.0 0.01 0.24 0.06 96 1006.1
20260903121105 54 132 0.0 0.0 0.01 0.24 0.06 96 1006.1
20260903120605 53 132 0.0 0.0 0.01 0.24 0.06 96 1006.0
20260903120105 53 131 0.0 0.0 0.01 0.24 0.06 96 1006.1
20260903115605 53 132 0.0 0.0 0.01 0.24 0.06 96 1006.0
20260903115105 53 132 0.0 0.0 0.01 0.24 0.06 96 1006.0
20260903114605 53 132 0.0 0.0 0.02 0.24 0.06 96 1005.9
20260903114105 53 132 0.0 0.0 0.02 0.24 0.06 96 1005.9
20260903113605 53 132 0.0 0.0 0.02 0.24 0.06 96 1005.8
20260903113105 53 132 0.0 0.0 0.02 0.24 0.06 96 1006.0
20260903112604 53 131 0.0 0.0 0.02 0.24 0.06 95 1006.0
20260903112105 53 131 0.0 0.0 0.02 0.24 0.06 95 1006.0
20260903111605 53 132 0.0 0.0 0.02 0.23 0.06 95 1005.9
20260903111105 53 132 0.0 0.0 0.02 0.23 0.06 95 1005.8
20260903110606 53 131 0.0 0.0 0.02 0.23 0.06 95 1005.8
20260903110105 53 131 0.0 0.0 0.03 0.23 0.06 95 1005.8
20260903105605 53 132 0.0 0.0 0.03 0.23 0.06 95 1005.8
20260903105105 53 132 0.0 0.0 0.03 0.23 0.06 95 1005.9
20260903104606 53 131 0.0 0.0 0.02 0.22 0.05 95 1005.8
20260903104104 53 131 0.0 0.0 0.02 0.22 0.05 95 1005.7
20260903103604 54 132 0.0 0.0 0.02 0.22 0.05 95 1005.7
20260903103104 54 132 0.0 0.0 0.02 0.22 0.05 95 1005.6
20260903102606 54 132 0.0 0.0 0.02 0.21 0.04 95 1005.6
20260903102104 54 132 0.0 0.0 0.02 0.21 0.04 95 1005.6
20260903101605 54 196 0.0 0.0 0.01 0.20 0.03 95 1005.6
20260903101104 54 196 0.0 0.0 0.01 0.20 0.03 95 1005.6
20260903100105 54 196 0.0 0.0 0.00 0.20 0.02 95 1005.7
20260903095605 54 196 0.0 1.0 0.00 0.20 0.02 95 1005.6
20260903095105 54 196 0.0 0.0 0.00 0.20 0.02 96 1005.6
20260903094604 54 196 0.0 0.0 0.01 0.20 0.02 96 1005.6
20260903093605 54 196 0.0 0.0 0.02 0.20 0.02 96 1005.6
20260903093104 54 196 0.0 0.0 0.02 0.20 0.02 96 1005.6
20260903092604 54 196 0.0 0.0 0.02 0.20 0.02 96 1005.6
20260903091605 54 196 3.0 6.0 0.02 0.20 0.02 96 1005.5
20260903091104 54 196 0.0 0.0 0.02 0.20 0.02 96 1005.5
20260903090604 54 196 0.0 1.0 0.02 0.20 0.02 96 1005.5
20260903085605 53 145 0.0 0.0 0.02 0.20 0.02 96 1005.4
20260903084605 53 135 0.0 0.0 0.02 0.19 0.02 96 1005.5
20260903084104 53 135 0.0 0.0 0.02 0.19 0.02 96 1005.5
20260903083604 53 135 0.0 0.0 0.01 0.18 0.01 96 1005.4
20260903083104 53 187 0.0 0.0 0.01 0.18 0.01 96 1005.3
20260903082604 53 187 0.0 1.0 0.01 0.18 0.01 96 1005.3
20260903082104 53 187 0.0 0.0 0.01 0.18 0.01 96 1005.2
20260903081105 53 187 0.0 0.0 0.00 0.17 0.00 96 1005.0
20260903080605 53 187 0.0 0.0 0.00 0.17 0.00 96 1004.9
20260903075604 52 346 0.0 6.0 0.00 0.17 0.00 96 1004.9
20260903075105 52 346 0.0 0.0 0.00 0.17 0.00 96 1004.8
20260903074604 52 346 0.0 0.0 0.00 0.17 0.00 96 1004.6
20260903074104 52 346 0.0 0.0 0.01 0.17 0.00 96 1004.5
20260903073604 52 346 0.0 0.0 0.01 0.17 0.00 96 1004.4
20260903072604 52 346 0.0 0.0 0.01 0.17 0.00 96 1004.5
20260903072105 52 346 0.0 0.0 0.01 0.17 0.00 96 1004.4
20260903071605 52 346 0.0 0.0 0.01 0.17 0.00 96 1004.2
20260903071106 51 346 0.0 0.0 0.01 0.17 0.00 96 1004.2
20260903070605 51 346 0.0 0.0 0.01 0.17 0.00 96 1004.2
20260903070105 51 346 0.0 0.0 0.01 0.17 0.00 96 1004.1
20260903065105 51 346 0.0 0.0 0.01 0.17 0.17 96 1004.0
20260903064605 51 346 0.0 0.0 0.01 0.17 0.17 95 1004.0
20260903064105 51 346 0.0 0.0 0.00 0.17 0.17 95 1004.0
20260903063605 51 346 0.0 0.0 0.00 0.17 0.17 95 1003.9
20260903062605 52 346 0.0 0.0 0.00 0.17 0.17 95 1003.9
20260903062105 52 346 0.0 0.0 0.00 0.17 0.17 95 1003.7
20260903061606 52 346 0.0 0.0 0.00 0.17 0.17 95 1003.7
20260903061105 52 346 0.0 0.0 0.00 0.17 0.17 95 1003.8
20260903060605 52 346 0.0 0.0 0.00 0.17 0.17 95 1003.6
20260903060104 52 346 0.0 0.0 0.00 0.17 0.17 95 1003.6
20260903055105 52 346 0.0 0.0 0.00 0.17 0.17 95 1003.6
20260903054105 52 346 0.0 0.0 0.00 0.17 0.17 95 1003.3
20260903053104 53 346 0.0 0.0 0.00 0.17 0.17 95 1003.2
20260903052604 53 346 0.0 0.0 0.00 0.17 0.17 95 1003.1
20260903052105 53 346 1.0 5.0 0.00 0.17 0.17 95 1003.0
20260903051606 53 346 0.0 0.0 0.00 0.17 0.17 95 1002.9
20260903051105 54 346 0.0 0.0 0.00 0.17 0.17 95 1002.8
20260903050604 54 346 0.0 0.0 0.00 0.17 0.17 95 1002.6
20260903050104 54 346 0.0 0.0 0.00 0.17 0.17 95 1002.6
20260903045605 55 346 0.0 0.0 0.00 0.17 0.17 95 1002.5
20260903045105 55 346 0.0 0.0 0.00 0.17 0.17 95 1002.4
20260903044605 55 346 0.0 0.0 0.00 0.17 0.17 95 1002.1
20260903044105 55 331 1.0 5.0 0.00 0.17 0.17 95 1001.9
20260903043605 55 277 1.0 5.0 0.00 0.17 0.17 95 1001.7
20260903043105 55 200 0.0 2.0 0.00 0.17 0.17 95 1001.7
20260903042605 55 200 1.0 3.0 0.00 0.17 0.17 95 1001.7
20260903042105 55 200 0.0 0.0 0.00 0.17 0.17 95 1001.7
20260903041605 55 200 0.0 0.0 0.00 0.17 0.17 95 1001.5
20260903041104 55 200 0.0 0.0 0.00 0.17 0.17 95 1001.5
20260903040604 55 200 0.0 0.0 0.00 0.17 0.17 95 1001.5
20260903040104 55 200 0.0 0.0 0.00 0.17 0.17 95 1001.4
20260903035605 55 200 0.0 0.0 0.00 0.17 0.17 95 1001.3
20260903035105 55 200 0.0 0.0 0.00 0.17 0.17 95 1001.3
20260903034605 55 200 0.0 0.0 0.00 0.17 0.17 95 1001.1
20260903034105 56 200 0.0 0.0 0.00 0.17 0.17 95 1001.1
20260903033606 56 200 0.0 0.0 0.00 0.17 0.17 95 1001.1
20260903033104 56 200 0.0 0.0 0.00 0.17 0.17 95 1001.0
20260903032604 56 200 0.0 0.0 0.00 0.17 0.17 95 1001.0
20260903032104 56 200 0.0 0.0 0.01 0.17 0.17 95 1001.0
20260903031105 56 200 0.0 0.0 0.01 0.17 0.17 95 1000.9
20260903030604 56 200 0.0 0.0 0.02 0.17 0.17 95 1000.8
20260903030104 56 200 0.0 0.0 0.02 0.17 0.17 95 1000.7
20260903025104 56 200 0.0 0.0 0.03 0.17 0.17 95 1000.7
20260903023605 56 200 0.0 0.0 0.06 0.17 0.17 95 1000.8
20260903023104 56 200 0.0 0.0 0.06 0.17 0.17 95 1000.8
20260903022605 56 200 0.0 0.0 0.06 0.17 0.17 95 1000.7
20260903022106 56 200 0.0 1.0 0.06 0.16 0.16 95 1000.6
20260903021604 56 200 0.0 0.0 0.06 0.16 0.16 95 1000.5
20260903021104 55 200 0.0 0.0 0.06 0.16 0.16 95 1000.5
20260903015604 56 200 0.0 1.0 0.03 0.13 0.13 94 1000.6
20260903015104 56 200 1.0 3.0 0.03 0.13 0.13 94 1000.6
20260903014605 56 200 1.0 6.0 0.02 0.13 0.13 94 1000.7
20260903014105 56 197 1.0 3.0 0.02 0.12 0.12 94 1000.6
20260903013105 56 227 1.0 5.0 0.01 0.10 0.10 94 1000.6
20260903012604 56 229 0.0 5.0 0.01 0.10 0.10 94 1000.6
20260903012105 56 183 0.0 5.0 0.02 0.10 0.10 94 1000.5
20260903011604 56 171 0.0 0.0 0.02 0.10 0.10 94 1000.4
20260903011105 56 123 0.0 1.0 0.03 0.10 0.10 94 1000.3
20260903010604 56 119 0.0 0.0 0.05 0.10 0.10 95 1000.4
20260903010105 56 119 0.0 5.0 0.05 0.10 0.10 95 1000.4
20260903005604 56 191 0.0 0.0 0.06 0.10 0.10 95 1000.4
20260903005104 56 191 0.0 0.0 0.06 0.10 0.10 94 1000.5
20260903004604 56 191 0.0 0.0 0.07 0.10 0.10 94 1000.5
20260903004105 57 191 0.0 0.0 0.08 0.10 0.10 94 1000.4
20260903003604 57 191 0.0 0.0 0.07 0.09 0.09 94 1000.4
20260903003105 57 191 0.0 0.0 0.08 0.09 0.09 94 1000.4
20260903002105 57 191 0.0 0.0 0.08 0.09 0.09 93 1000.5
20260903001604 57 191 0.0 0.0 0.07 0.08 0.08 93 1000.5
20260903001104 57 191 0.0 0.0 0.06 0.07 0.07 92 1000.4
20260903000605 58 191 2.0 6.0 0.05 0.06 0.06 92 1000.4
20260902235604 58 191 0.0 0.0 0.04 0.05 0.05 92 1000.4
20260902235104 58 191 0.0 0.0 0.03 0.04 0.04 91 1000.5
20260902234604 59 191 0.0 0.0 0.02 0.03 0.03 90 1000.4
20260902234105 59 191 0.0 0.0 0.02 0.02 0.02 89 1000.4
20260902233604 59 191 0.0 0.0 0.02 0.02 0.02 88 1000.3
20260902233104 60 191 0.0 0.0 0.01 0.02 0.02 84 1000.3
20260902232104 61 191 0.0 0.0 0.00 0.01 0.01 81 1000.3
20260902231604 62 191 0.0 1.0 0.00 0.01 0.01 77 1000.3
20260902230604 63 193 0.0 0.0 0.00 0.01 0.01 77 1000.3
20260902225604 63 194 0.0 0.0 0.00 0.01 0.01 75 1000.3
20260902225104 63 194 0.0 3.0 0.00 0.01 0.01 76 1000.4
20260902224604 63 193 0.0 0.0 0.00 0.01 0.01 77 1000.3
20260902224104 63 194 0.0 0.0 0.00 0.01 0.01 75 1000.4
20260902223104 63 92 0.0 0.0 0.00 0.01 0.01 75 1000.5
20260902222604 63 92 0.0 0.0 0.00 0.01 0.01 75 1000.6
20260902222105 63 197 0.0 0.0 0.00 0.01 0.01 74 1000.6
20260902221604 63 197 0.0 0.0 0.00 0.01 0.01 74 1000.7
20260902221105 63 197 0.0 2.0 0.00 0.01 0.01 74 1000.7
20260902220105 63 309 0.0 0.0 0.00 0.01 0.01 74 1000.7
20260902215105 63 313 0.0 0.0 0.00 0.01 0.01 75 1000.8
20260902214604 63 313 0.0 0.0 0.00 0.01 0.01 76 1000.8
20260902214104 63 313 0.0 0.0 0.00 0.01 0.01 76 1000.8
20260902213604 63 315 0.0 8.0 0.00 0.01 0.01 77 1000.9
20260902213105 63 302 0.0 2.0 0.00 0.01 0.01 76 1001.0
20260902212104 64 56 0.0 1.0 0.00 0.01 0.01 74 1001.0
20260902211604 64 123 0.0 0.0 0.00 0.01 0.01 74 1001.1
20260902210604 65 60 0.0 1.0 0.00 0.01 0.01 71 1001.2
20260902205605 65 48 0.0 1.0 0.00 0.01 0.01 72 1001.4
20260902205104 65 61 0.0 5.0 0.00 0.01 0.01 71 1001.4
20260902204604 65 81 0.0 5.0 0.00 0.01 0.01 70 1001.4
20260902204105 65 162 1.0 3.0 0.00 0.01 0.01 70 1001.3
20260902203604 65 50 0.0 1.0 0.00 0.01 0.01 71 1001.3
20260902202604 64 208 1.0 8.0 0.00 0.01 0.01 72 1001.4
20260902202104 64 231 1.0 6.0 0.00 0.01 0.01 73 1001.4
20260902201605 65 268 0.0 5.0 0.00 0.01 0.01 73 1001.5
20260902201104 64 229 1.0 2.0 0.00 0.01 0.01 72 1001.6
20260902200604 64 152 1.0 3.0 0.00 0.01 0.01 72 1001.7
20260902200104 64 172 0.0 5.0 0.00 0.01 0.01 74 1001.7
20260902195604 64 193 2.0 9.0 0.00 0.01 0.01 73 1001.7
20260902195104 64 80 0.0 2.0 0.00 0.01 0.01 75 1001.8
20260902194105 64 172 0.0 12.0 0.00 0.01 0.01 76 1001.9
20260902193604 64 86 0.0 3.0 0.00 0.01 0.01 78 1001.9
20260902193104 63 49 0.0 0.0 0.00 0.01 0.01 78 1002.0
20260902192604 63 49 0.0 1.0 0.00 0.01 0.01 78 1002.1
20260902192104 63 49 1.0 6.0 0.00 0.01 0.01 78 1002.1
20260902191605 63 283 0.0 1.0 0.00 0.01 0.01 78 1002.1
20260902190104 62 58 0.0 0.0 0.00 0.01 0.01 81 1002.2
20260902185604 62 58 0.0 0.0 0.00 0.01 0.01 82 1002.2
20260902184604 62 55 0.0 0.0 0.00 0.01 0.01 81 1002.4
20260902184104 62 55 0.0 0.0 0.00 0.01 0.01 81 1002.3
20260902183604 62 55 0.0 0.0 0.00 0.01 0.01 81 1002.4
20260902183104 62 55 0.0 0.0 0.00 0.01 0.01 80 1002.5
20260902182604 62 55 0.0 0.0 0.00 0.01 0.01 81 1002.5
20260902182104 61 55 0.0 2.0 0.00 0.01 0.01 81 1002.6
20260902181604 62 55 0.0 0.0 0.00 0.01 0.01 81 1002.6
20260902181105 62 55 0.0 1.0 0.00 0.01 0.01 81 1002.6
20260902180604 62 55 0.0 0.0 0.00 0.01 0.01 80 1002.5
20260902180104 62 55 0.0 1.0 0.00 0.01 0.01 81 1002.6
20260902175104 61 200 0.0 1.0 0.00 0.01 0.01 81 1002.8
20260902174604 61 200 0.0 6.0 0.00 0.01 0.01 81 1002.9
20260902174104 61 187 0.0 1.0 0.00 0.01 0.01 81 1002.9
20260902173604 61 181 0.0 0.0 0.00 0.01 0.01 82 1002.8
20260902173104 61 181 1.0 2.0 0.00 0.01 0.01 81 1002.9
20260902172605 61 228 0.0 5.0 0.00 0.01 0.01 81 1002.9
20260902172104 61 120 0.0 0.0 0.00 0.01 0.01 82 1002.9
20260902171604 61 160 0.0 0.0 0.00 0.01 0.01 82 1003.0
20260902171104 61 159 1.0 2.0 0.00 0.01 0.01 82 1003.0
20260902170604 61 157 0.0 6.0 0.00 0.01 0.01 83 1003.0
20260902170103 60 215 0.0 3.0 0.00 0.01 0.01 83 1003.0
20260902165604 60 197 1.0 3.0 0.00 0.01 0.01 84 1003.0
20260902165104 60 196 0.0 2.0 0.00 0.01 0.01 83 1003.1
20260902164604 60 192 2.0 6.0 0.00 0.01 0.01 84 1003.0
20260902164104 60 178 0.0 3.0 0.00 0.01 0.01 85 1003.1
20260902163604 60 171 1.0 5.0 0.00 0.01 0.01 85 1003.0
20260902163104 60 160 0.0 2.0 0.00 0.01 0.01 85 1003.1
20260902162104 59 153 0.0 1.0 0.01 0.01 0.01 86 1003.1
20260902161604 59 153 0.0 0.0 0.01 0.01 0.01 86 1003.1
20260902161104 59 152 0.0 5.0 0.01 0.01 0.01 86 1003.2
20260902160604 59 155 0.0 2.0 0.01 0.01 0.01 87 1003.2
20260902160104 59 94 0.0 5.0 0.01 0.01 0.01 87 1003.2
20260902155603 59 175 0.0 2.0 0.01 0.01 0.01 87 1003.3
20260902154604 59 123 0.0 0.0 0.01 0.01 0.01 88 1003.4
20260902154111 58 123 0.0 0.0 0.01 0.01 0.01 88 1003.3
20260902153604 58 123 0.0 0.0 0.01 0.01 0.01 88 1003.3
20260902153104 58 123 0.0 0.0 0.01 0.01 0.01 88 1003.3
20260902152604 58 123 0.0 0.0 0.01 0.01 0.01 88 1003.3
20260902152104 58 149 0.0 2.0 0.00 0.00 0.00 88 1003.2
20260902151604 58 98 0.0 0.0 0.00 0.00 0.00 87 1003.1
20260902151104 58 173 0.0 0.0 0.00 0.00 0.00 87 1003.1
20260902150104 59 173 0.0 0.0 0.00 0.00 0.00 87 1003.0